星链-11458 (STARLINK-11458)

导读

STARLINK-11458是美国SpaceX公司星链星座的一员,于2025年2月11日发射升空。星链计划旨在构建全球覆盖的低轨卫星互联网,为偏远地区、移动场景提供高速宽带服务。STARLINK-11458运行于近地轨道,配备相控阵天线与星间激光链路,可实现高速数据传输,助力全球网络无缝覆盖,进一步扩展星链服务规模,目前已在轨正常运行,支撑SpaceX全球互联愿景落地。

基本信息
目录编号:
62982
目录名称:
STARLINK-11458
国际标识:
2025-031B
轨道中心:
EARTH
卫星名称:
星链-11458
卫星全名:
星链-11458 (STARLINK-11458)
卫星状态:
在轨 (已飞行571 天)
发射日期:
2025-02-11 UTC
国别 :
美国 (US)
星等 :
--
轨道信息
数据来源 国际轨道数据
星历时间: 2026-09-05T00:13:01+0800
15小时前
查看轨道信息
半长轴: 6734.551km
偏心率: 0.0003036
轨道倾角: 43.000°
近地点辐角 291.695°
升交点赤经 2.468°
平近点角 68.360°
近地点: 354.369km
远地点: 358.459km
周期: 91.669分钟
每日圈数: 15.708684
详细信息
固有亮度:
5
最大亮度:
2.5
卫星平台:
Starlink V1.0
覆盖范围:
全球
运营商:
太空探索技术公司
运营商所在国:
美国
制造商(研发单位):
太空探索技术公司
制造商所在国:
美国
使用方式:
暂无
卫星简介
Starlink 计划是 SpaceX 推出的全球卫星互联网项目,通过发射低轨道卫星,为全球尤其是偏远地区提供高速、低延迟的互联网服务。自 2019 年起,Starlink 已部署数千颗卫星,旨在缩小全球数字鸿沟,推动互联网普及。该项目还为军事、航空等行业提供通信支持,带来广泛经济效益。
2D轨道图
3D轨道图
轨道高度分析图
轨道倾角分析图
轨道综合分析图
查看轨道综合分析图